EXS79NX EGBB-LGKR

Flight info

Callsign EXS79NX
Flight time N/A
Altitude 35000
Route COWLY Q70 BIG UL9 KONAN UL607 SPI DCT ARCKY DCT LIRSU DCT ULNOK DCT VIBOM DCT NOMBO/N0436F370 DCT RIDAR DCT RADIZ DCT MODRO DCT DARZA DCT UNIPA DCT NERRA DCT VAKSU DCT RODON DCT LIMJA N732 PITAS
Aircraft B738/M-SDE2E3FGHIRWXY/LB1

Departure

Time N/A
Airport Birmingham Airport (EGBB)

Arrival

Time 2026-04-30 19:44
Airport Corfu Ioannis Kapodistrias International Airport (LGKR)
Time Latitude Longitude Altitude Speed Heading
2026-04-30 17:39 50.05323 7.25740 35322 ft 428 kts 103°
2026-04-30 17:42 49.97626 7.70406 35325 ft 427 kts 103°
2026-04-30 17:43 49.93730 7.92591 35337 ft 427 kts 102°
2026-04-30 17:44 49.88998 8.19177 35341 ft 426 kts 102°
2026-04-30 17:47 49.77583 8.56257 35327 ft 437 kts 125°
2026-04-30 17:48 49.64849 8.80712 35324 ft 439 kts 124°
2026-04-30 17:50 49.49502 9.10074 35308 ft 441 kts 124°
2026-04-30 17:52 49.39094 9.33164 35319 ft 437 kts 118°
2026-04-30 17:54 49.24106 9.68151 35325 ft 436 kts 118°
2026-04-30 17:56 49.10725 9.98926 35323 ft 434 kts 118°
2026-04-30 17:58 48.98992 10.20175 35356 ft 442 kts 130°
2026-04-30 18:00 48.81461 10.46499 35374 ft 443 kts 129°
2026-04-30 18:01 48.70471 10.62946 35365 ft 445 kts 129°
2026-04-30 18:02 48.57328 10.82784 35331 ft 441 kts 123°
2026-04-30 18:04 48.45824 11.04351 35313 ft 440 kts 122°
2026-04-30 18:06 48.30366 11.32773 35331 ft 441 kts 122°
2026-04-30 18:08 48.16688 11.57662 35329 ft 441 kts 122°
2026-04-30 18:10 48.01000 11.85927 35344 ft 443 kts 122°
2026-04-30 18:11 47.87115 12.10700 35336 ft 446 kts 122°
2026-04-30 18:13 47.77121 12.28392 35351 ft 448 kts 123°
2026-04-30 18:14 47.67033 12.46139 35337 ft 452 kts 123°
2026-04-30 18:15 47.53116 12.65501 35327 ft 465 kts 135°
2026-04-30 18:16 47.43547 12.76898 35326 ft 465 kts 134°
2026-04-30 18:17 47.38529 12.82921 35316 ft 465 kts 135°
2026-04-30 18:18 47.31001 12.91939 35318 ft 463 kts 135°
2026-04-30 18:18 47.25980 12.97932 35317 ft 464 kts 135°
2026-04-30 18:19 47.21001 13.03859 35328 ft 462 kts 135°
2026-04-30 18:19 47.15984 13.09816 35308 ft 464 kts 135°
2026-04-30 18:20 47.10941 13.15791 35301 ft 466 kts 135°
2026-04-30 18:20 47.05905 13.21739 35288 ft 468 kts 135°
2026-04-30 18:21 47.00828 13.27721 35290 ft 467 kts 136°
2026-04-30 18:21 46.98285 13.30712 35418 ft 468 kts 136°
2026-04-30 18:21 46.95746 13.33695 35693 ft 466 kts 136°
2026-04-30 18:21 46.93222 13.36654 35972 ft 464 kts 136°
2026-04-30 18:22 46.90703 13.39604 36206 ft 463 kts 137°
2026-04-30 18:22 46.85713 13.45441 36709 ft 459 kts 137°
2026-04-30 18:22 46.83220 13.48351 36972 ft 457 kts 137°
2026-04-30 18:23 46.80730 13.51256 37108 ft 459 kts 137°
2026-04-30 18:23 46.79077 13.53182 37186 ft 459 kts 137°
2026-04-30 18:23 46.75751 13.57052 37297 ft 457 kts 137°
2026-04-30 18:23 46.73254 13.59954 37324 ft 460 kts 138°
2026-04-30 18:24 46.65650 13.68773 37324 ft 472 kts 138°
2026-04-30 18:25 46.60487 13.74737 37329 ft 475 kts 138°
2026-04-30 18:25 46.52753 13.83640 37321 ft 470 kts 138°
2026-04-30 18:26 46.45095 13.92424 37338 ft 464 kts 139°
2026-04-30 18:27 46.37510 14.01102 37347 ft 469 kts 139°
2026-04-30 18:28 46.29715 14.09983 37334 ft 477 kts 139°
2026-04-30 18:28 46.21888 14.18864 37326 ft 480 kts 139°
2026-04-30 18:29 46.11331 14.30795 37332 ft 483 kts 140°
2026-04-30 18:30 46.00761 14.42755 37327 ft 484 kts 139°
2026-04-30 18:31 45.92829 14.51831 37333 ft 485 kts 140°
2026-04-30 18:32 45.84919 14.60831 37335 ft 485 kts 140°
2026-04-30 18:33 45.77869 14.68818 37345 ft 484 kts 140°
2026-04-30 18:33 45.69930 14.77780 37344 ft 483 kts 140°
2026-04-30 18:34 45.62018 14.86680 37353 ft 483 kts 140°
2026-04-30 18:35 45.56722 14.92620 37364 ft 483 kts 140°
2026-04-30 18:35 45.51458 14.98511 37359 ft 483 kts 141°
2026-04-30 18:36 45.43396 15.07172 37347 ft 483 kts 143°
2026-04-30 18:37 45.35215 15.15520 37356 ft 484 kts 143°
2026-04-30 18:37 45.29748 15.21128 37342 ft 484 kts 143°
2026-04-30 18:38 45.24282 15.26751 37352 ft 484 kts 143°
2026-04-30 18:38 45.18845 15.32338 37346 ft 485 kts 143°
2026-04-30 18:39 45.13352 15.37966 37361 ft 486 kts 143°
2026-04-30 18:39 45.07878 15.43560 37339 ft 487 kts 143°
2026-04-30 18:40 45.02362 15.49182 37339 ft 488 kts 143°
2026-04-30 18:40 44.96874 15.54763 37336 ft 488 kts 143°
2026-04-30 18:41 44.91349 15.60367 37328 ft 489 kts 144°
2026-04-30 18:41 44.85815 15.65967 37332 ft 489 kts 144°
2026-04-30 18:42 44.80273 15.71561 37331 ft 489 kts 144°
2026-04-30 18:42 44.71995 15.79893 37326 ft 489 kts 144°
2026-04-30 18:45 44.41477 16.10353 37297 ft 490 kts 144°
2026-04-30 18:46 44.35937 16.15840 37306 ft 490 kts 145°
2026-04-30 18:46 44.30353 16.21357 37295 ft 490 kts 145°
2026-04-30 18:47 44.24807 16.26825 37291 ft 491 kts 145°
2026-04-30 18:47 44.19220 16.32319 37297 ft 491 kts 145°
2026-04-30 18:48 44.13639 16.37796 37293 ft 491 kts 145°
2026-04-30 18:48 44.08023 16.43294 37287 ft 492 kts 146°
2026-04-30 18:49 44.02458 16.48728 37296 ft 492 kts 146°
2026-04-30 18:49 43.96814 16.54179 37287 ft 492 kts 146°
2026-04-30 18:50 43.91202 16.59561 37275 ft 492 kts 146°
2026-04-30 18:50 43.85573 16.64952 37282 ft 492 kts 146°
2026-04-30 18:51 43.79922 16.70358 37279 ft 491 kts 146°
2026-04-30 18:51 43.74286 16.75740 37265 ft 491 kts 147°
2026-04-30 18:52 43.68655 16.81104 37263 ft 491 kts 147°
2026-04-30 18:52 43.63061 16.86421 37269 ft 491 kts 147°
2026-04-30 18:53 43.57430 16.91760 37254 ft 491 kts 147°
2026-04-30 18:53 43.51790 16.97095 37245 ft 491 kts 147°
2026-04-30 18:54 43.46148 17.02420 37248 ft 490 kts 147°
2026-04-30 18:54 43.40542 17.07698 37253 ft 491 kts 147°
2026-04-30 18:55 43.34899 17.13000 37241 ft 491 kts 148°
2026-04-30 18:55 43.26425 17.20938 37221 ft 492 kts 148°
2026-04-30 18:56 43.17965 17.28836 37216 ft 492 kts 148°
2026-04-30 18:57 43.09445 17.36764 37218 ft 494 kts 148°
2026-04-30 18:57 43.03730 17.42067 37208 ft 496 kts 148°
2026-04-30 18:58 42.95220 17.49943 37212 ft 497 kts 148°
2026-04-30 18:59 42.86797 17.58232 37210 ft 499 kts 143°
2026-04-30 19:00 42.76125 17.70388 37193 ft 500 kts 142°
2026-04-30 19:01 42.65365 17.82437 37185 ft 501 kts 143°
2026-04-30 19:02 42.57283 17.91411 37171 ft 502 kts 143°
2026-04-30 19:03 42.46457 18.03397 37161 ft 501 kts 143°
2026-04-30 19:04 42.35668 18.15286 37159 ft 501 kts 144°
2026-04-30 19:05 42.24856 18.27147 37158 ft 500 kts 144°
2026-04-30 19:06 42.14073 18.38923 37160 ft 499 kts 144°
2026-04-30 19:06 42.05970 18.47739 37165 ft 500 kts 144°
2026-04-30 19:07 41.97806 18.56510 37157 ft 502 kts 146°
2026-04-30 19:08 41.86727 18.67944 37157 ft 504 kts 146°
2026-04-30 19:09 41.78378 18.76570 37158 ft 504 kts 146°
2026-04-30 19:09 41.72854 18.82271 37150 ft 504 kts 146°
2026-04-30 19:10 41.61730 18.93708 37143 ft 502 kts 147°
2026-04-30 19:11 41.53485 19.02156 37112 ft 488 kts 147°
2026-04-30 19:12 41.48126 19.07627 37126 ft 481 kts 148°
2026-04-30 19:12 41.45340 19.10066 36934 ft 477 kts 156°
2026-04-30 19:12 41.42405 19.11860 36605 ft 463 kts 166°
2026-04-30 19:13 41.36404 19.14723 35849 ft 453 kts 167°
2026-04-30 19:13 41.30489 19.17518 35058 ft 448 kts 168°
2026-04-30 19:13 41.27560 19.18923 34670 ft 445 kts 168°
2026-04-30 19:14 41.24690 19.20309 34261 ft 444 kts 168°
2026-04-30 19:14 41.21779 19.21721 33824 ft 442 kts 168°
2026-04-30 19:14 41.18899 19.23121 33401 ft 439 kts 168°
2026-04-30 19:14 41.16030 19.24517 32995 ft 437 kts 168°
2026-04-30 19:15 41.13185 19.25899 32605 ft 434 kts 169°
2026-04-30 19:15 41.07575 19.28619 31848 ft 429 kts 169°
2026-04-30 19:15 41.04778 19.29971 31473 ft 426 kts 169°
2026-04-30 19:16 41.01994 19.31315 31113 ft 424 kts 169°
2026-04-30 19:16 40.99377 19.32577 30765 ft 422 kts 169°
2026-04-30 19:16 40.93876 19.35226 30024 ft 418 kts 169°
2026-04-30 19:17 40.91138 19.36542 29601 ft 416 kts 169°
2026-04-30 19:17 40.86644 19.38702 28957 ft 410 kts 169°
2026-04-30 19:17 40.83091 19.40408 28444 ft 407 kts 169°
2026-04-30 19:18 40.79544 19.42109 27959 ft 403 kts 169°
2026-04-30 19:18 40.76069 19.43773 27456 ft 399 kts 169°
2026-04-30 19:18 40.72610 19.45426 26969 ft 396 kts 168°
2026-04-30 19:19 40.70024 19.46661 26614 ft 394 kts 168°
2026-04-30 19:19 40.68318 19.47476 26376 ft 392 kts 168°
2026-04-30 19:19 40.63236 19.49899 25667 ft 388 kts 168°
2026-04-30 19:20 40.60700 19.51106 25310 ft 386 kts 168°
2026-04-30 19:20 40.58168 19.52311 24962 ft 384 kts 168°
2026-04-30 19:20 40.53186 19.54680 24264 ft 381 kts 168°
2026-04-30 19:21 40.50701 19.55859 23918 ft 379 kts 168°
2026-04-30 19:21 40.45736 19.58213 23136 ft 377 kts 168°
2026-04-30 19:22 40.40831 19.60536 22419 ft 372 kts 167°
2026-04-30 19:22 40.33607 19.63952 21387 ft 366 kts 167°
2026-04-30 19:23 40.26470 19.67317 20366 ft 359 kts 167°
2026-04-30 19:24 40.21810 19.69510 19702 ft 356 kts 166°
2026-04-30 19:24 40.19477 19.70607 19364 ft 354 kts 166°
2026-04-30 19:24 40.14857 19.72776 18703 ft 352 kts 166°
2026-04-30 19:25 40.08112 19.75938 17659 ft 349 kts 166°
2026-04-30 19:26 40.03587 19.78057 16970 ft 345 kts 166°
2026-04-30 19:26 39.99121 19.80147 16318 ft 332 kts 166°
2026-04-30 19:26 39.97112 19.81086 16051 ft 329 kts 166°
2026-04-30 19:27 39.92821 19.83086 15433 ft 325 kts 166°
2026-04-30 19:27 39.88584 19.84839 14785 ft 314 kts 182°
2026-04-30 19:28 39.86486 19.84478 14501 ft 297 kts 206°
2026-04-30 19:28 39.83431 19.81265 13881 ft 279 kts 242°
2026-04-30 19:29 39.81853 19.76738 13242 ft 273 kts 251°
2026-04-30 19:29 39.81167 19.74483 12939 ft 271 kts 251°
2026-04-30 19:30 39.79050 19.67750 12075 ft 265 kts 250°
2026-04-30 19:30 39.77553 19.63409 11337 ft 271 kts 243°
2026-04-30 19:31 39.75432 19.59312 10587 ft 271 kts 239°
2026-04-30 19:31 39.74720 19.57953 10476 ft 266 kts 240°
2026-04-30 19:31 39.72352 19.53452 10114 ft 257 kts 229°
2026-04-30 19:32 39.70858 19.52123 9941 ft 265 kts 210°
2026-04-30 19:32 39.69111 19.51243 9683 ft 276 kts 200°
2026-04-30 19:32 39.67227 19.50696 9427 ft 285 kts 193°
2026-04-30 19:32 39.65247 19.50350 9127 ft 287 kts 189°
2026-04-30 19:33 39.63256 19.50139 8825 ft 287 kts 187°
2026-04-30 19:33 39.61256 19.49999 8528 ft 286 kts 185°
2026-04-30 19:33 39.59284 19.49996 8226 ft 286 kts 180°
2026-04-30 19:33 39.57361 19.50615 7936 ft 288 kts 148°
2026-04-30 19:34 39.56033 19.52482 7687 ft 283 kts 112°
2026-04-30 19:34 39.55744 19.54924 7422 ft 273 kts 80°
2026-04-30 19:34 39.56299 19.59763 6775 ft 277 kts 93°
2026-04-30 19:35 39.55752 19.62164 6513 ft 278 kts 112°
2026-04-30 19:35 39.54913 19.64431 6188 ft 279 kts 115°
2026-04-30 19:35 39.54028 19.66657 5902 ft 278 kts 115°
2026-04-30 19:35 39.53146 19.68884 5630 ft 275 kts 115°
2026-04-30 19:36 39.52299 19.71055 5561 ft 265 kts 114°
2026-04-30 19:36 39.51502 19.73134 5366 ft 254 kts 114°
2026-04-30 19:36 39.50008 19.77092 4570 ft 242 kts 113°
2026-04-30 19:37 39.49283 19.79032 4277 ft 233 kts 113°
2026-04-30 19:37 39.48585 19.80898 4154 ft 227 kts 113°
2026-04-30 19:37 39.47910 19.82707 4037 ft 224 kts 113°
2026-04-30 19:37 39.47244 19.84495 3923 ft 215 kts 113°
2026-04-30 19:38 39.46607 19.86198 3820 ft 203 kts 112°
2026-04-30 19:38 39.46010 19.87794 3732 ft 191 kts 113°
2026-04-30 19:38 39.45443 19.89310 3595 ft 183 kts 112°
2026-04-30 19:38 39.44899 19.90765 3490 ft 181 kts 112°
2026-04-30 19:39 39.44349 19.92239 3300 ft 181 kts 113°
2026-04-30 19:39 39.43827 19.93710 3098 ft 177 kts 102°
2026-04-30 19:39 39.43910 19.95206 2934 ft 164 kts 57°
2026-04-30 19:39 39.44686 19.96226 2783 ft 160 kts 21°
2026-04-30 19:40 39.45738 19.96440 2589 ft 154 kts 346°
2026-04-30 19:40 39.46773 19.96052 2442 ft 156 kts 344°
2026-04-30 19:40 39.47805 19.95688 2243 ft 156 kts 343°
2026-04-30 19:40 39.48840 19.95317 2097 ft 150 kts 343°
2026-04-30 19:41 39.49858 19.94944 1899 ft 154 kts 343°
2026-04-30 19:41 39.50889 19.94567 1707 ft 154 kts 344°
2026-04-30 19:41 39.51903 19.94180 1521 ft 149 kts 342°
2026-04-30 19:41 39.52880 19.93788 1320 ft 146 kts 341°
2026-04-30 19:42 39.53850 19.93407 1149 ft 145 kts 342°
2026-04-30 19:42 39.54817 19.92978 1014 ft 149 kts 339°
2026-04-30 19:42 39.55803 19.92525 785 ft 149 kts 340°
2026-04-30 19:42 39.56763 19.92123 506 ft 142 kts 344°
2026-04-30 19:43 39.57701 19.91847 294 ft 139 kts 349°
2026-04-30 19:43 39.58665 19.91603 142 ft 145 kts 349°
2026-04-30 19:43 39.59645 19.91348 20 ft 135 kts 349°
2026-04-30 19:44 39.60873 19.91041 5 ft 33 kts 348°
2026-04-30 19:44 39.60933 19.91024 5 ft 1 kts 347°
2026-04-30 19:44 39.60969 19.91014 4 ft 9 kts 348°
2026-04-30 19:44 39.61039 19.91038 5 ft 13 kts 59°
2026-04-30 19:45 39.61043 19.91128 7 ft 11 kts 142°
2026-04-30 19:45 39.60969 19.91144 9 ft 11 kts 168°
2026-04-30 19:45 39.60899 19.91163 7 ft 10 kts 168°
2026-04-30 19:45 39.60830 19.91182 6 ft 10 kts 167°
2026-04-30 19:46 39.60805 19.91189 8 ft 0 kts 167°
2026-04-30 19:47 39.60795 19.91192 6 ft 4 kts 168°
2026-04-30 19:47 39.60777 19.91210 7 ft 6 kts 116°
2026-04-30 19:47 39.60784 19.91304 9 ft 9 kts 78°
2026-04-30 19:47 39.60789 19.91337 7 ft 0 kts 78°